Valdosta Regional, GA

12:26 AM EDT on March 24, 2017 (GMT -0400)
Valdosta Regional

Weather History for KVLD - December, 2012

Change the Weather History Date:

Monday, December 24, 2012

  Actual Average Record
Temperature  
Mean Temperature 57 °F 52 °F  
Max Temperature 71 °F 63 °F 81 °F (2015)
Min Temperature 42 °F 40 °F 28 °F (1999)
Degree Days  
Heating Degree Days 8 14  
Month to date heating degree days 131 283  
Since 1 July heating degree days 344 514  
Growing Degree Days 6 (Base 50)    
Moisture  
Dew Point 51 °F    
Average Humidity 74    
Maximum Humidity 90    
Minimum Humidity 57    
Precipitation  
Precipitation 0.37 in 0.08 in 1.95 in (2002)
Month to date precipitation 2.43 2.64  
Year to date precipitation 42.45 50.07  
Sea Level Pressure  
Sea Level Pressure 30.02 in    
Wind  
Wind Speed 6 mph (South)    
Max Wind Speed 16 mph    
Max Gust Speed 31 mph    
Visibility 9 miles    
Events Rain    
T = Trace of Precipitation, MM = Missing Value Source: NWS Daily Summary

Daily Weather History Graph

Daily Weather History Graph

Search for Another Location

Airport or City:

Trip Planner

Search our weather history database for the weather conditions in past years. The results will help you decide how hot, cold, wet, or windy it might be!

Date:

Astronomy

Dec. 24, 2012 Rise Set
Actual Time 7:28 AM EST 5:37 PM EST
Civil Twilight 7:01 AM EST 6:04 PM EST
Nautical Twilight 6:31 AM EST 6:34 PM EST
Astronomical Twilight 6:02 AM EST 7:04 PM EST
Moon 3:00 PM EST 4:11 AM EST
Length of Visible Light 11h 02m
Length of Day
10h 09m
Waxing Gibbous, 88% of the Moon is Illuminated
Dec 24
Waxing Gibbous
Dec 28
Full
Jan 4
Last Quarter
Jan 11
New
Jan 18
First Quarter

Hourly Weather History & Observations

Time (EST) Temp. Windchill Dew Point Humidity Pressure Visibility Wind Dir Wind Speed Gust Speed Precip Events Conditions
12:53 AM 42.1 °F - 36.0 °F 79% 30.15 in 10.0 mi Calm Calm - N/A   Clear
1:53 AM 42.1 °F - 35.1 °F 76% 30.15 in 10.0 mi Calm Calm - N/A   Clear
2:53 AM 43.0 °F - 37.0 °F 80% 30.13 in 10.0 mi Calm Calm - N/A   Clear
3:53 AM 44.1 °F - 37.9 °F 79% 30.12 in 10.0 mi Calm Calm - N/A   Clear
4:53 AM 46.0 °F 43.1 °F 39.0 °F 76% 30.10 in 10.0 mi South 5.8 mph - N/A   Partly Cloudy
5:53 AM 46.0 °F 43.1 °F 39.0 °F 76% 30.09 in 10.0 mi South 5.8 mph - N/A   Clear
6:53 AM 48.0 °F - 39.9 °F 74% 30.09 in 10.0 mi South 5.8 mph - N/A   Overcast
7:53 AM 48.9 °F - 42.1 °F 77% 30.08 in 10.0 mi South 5.8 mph - N/A   Partly Cloudy
8:53 AM 54.0 °F - 43.0 °F 66% 30.09 in 10.0 mi South 8.1 mph - N/A   Mostly Cloudy
9:53 AM 55.9 °F - 44.1 °F 64% 30.09 in 10.0 mi South 10.4 mph - N/A   Scattered Clouds
10:53 AM 57.9 °F - 46.0 °F 65% 30.08 in 10.0 mi South 10.4 mph - N/A   Overcast
11:53 AM 61.0 °F - 48.9 °F 64% 30.04 in 10.0 mi South 11.5 mph - N/A   Mostly Cloudy
12:53 PM 64.0 °F - 52.0 °F 65% 30.01 in 10.0 mi South 11.5 mph 16.1 mph N/A   Mostly Cloudy
1:53 PM 70.0 °F - 54.0 °F 57% 29.97 in 10.0 mi South 12.7 mph 24.2 mph N/A   Mostly Cloudy
2:51 PM 66.2 °F - 57.2 °F 73% 29.95 in 9.0 mi SSW 9.2 mph - 0.01 in Rain Light Rain
2:53 PM 66.0 °F - 57.0 °F 73% 29.97 in 9.0 mi SSW 10.4 mph 19.6 mph 0.01 in Rain Light Rain
3:00 PM 66.2 °F - 57.2 °F 73% 29.95 in 10.0 mi SSW 8.1 mph 19.6 mph 0.00 in Rain Light Rain
3:53 PM 64.9 °F - 57.9 °F 78% 29.96 in 10.0 mi South 6.9 mph - 0.02 in Rain Light Rain
4:53 PM 63.0 °F - 57.9 °F 84% 29.96 in 3.0 mi South 4.6 mph - 0.06 in Rain Rain
5:29 PM 62.6 °F - 57.2 °F 82% 29.95 in 9.0 mi South 5.8 mph - 0.03 in Rain Light Rain
5:51 PM 62.6 °F - 57.2 °F 82% 29.96 in 2.5 mi SSW 3.5 mph - 0.04 in Rain Heavy Rain
5:53 PM 62.1 °F - 57.9 °F 86% 29.98 in 2.0 mi South 3.5 mph - 0.04 in Rain Heavy Rain
6:13 PM 62.6 °F - 57.2 °F 82% 29.96 in 1.8 mi Variable 3.5 mph - N/A Rain Heavy Rain
6:31 PM 62.6 °F - 57.2 °F 82% 29.96 in 2.0 mi Calm Calm - N/A Rain Heavy Rain
6:44 PM 62.6 °F - 57.2 °F 82% 29.97 in 7.0 mi Calm Calm - N/A Rain Light Rain
6:53 PM 62.1 °F - 57.9 °F 86% 29.99 in 10.0 mi SSW 3.5 mph - N/A Rain Light Rain
7:53 PM 60.1 °F - 57.0 °F 90% 29.99 in 10.0 mi South 4.6 mph - 0.05 in   Mostly Cloudy
8:53 PM 60.1 °F - 57.0 °F 90% 30.00 in 10.0 mi South 5.8 mph - 0.05 in   Mostly Cloudy
9:26 PM 59.0 °F - 55.4 °F 88% 29.98 in 10.0 mi South 8.1 mph - 0.02 in   Mostly Cloudy
9:53 PM 60.1 °F - 55.9 °F 86% 30.00 in 10.0 mi South 6.9 mph - 0.04 in   Mostly Cloudy
10:53 PM 59.0 °F - 55.9 °F 90% 30.01 in 10.0 mi South 4.6 mph - 0.03 in   Mostly Cloudy
11:53 PM 57.9 °F - 55.0 °F 90% 30.00 in 9.0 mi South 5.8 mph - 0.02 in   Overcast